TIME,DELAY(SENSOR),PRES,OXYGEN,RAWTEMP,T(OPTODE),TCPHASE,FLUOR,BETA(BETA700),BETA(BETA412),BETA(BETA440),CDOM,C(CSC),ED(ED412.40),ED(ED444.00),ED(ED489.70),ED(ED554.30),LU(LU411.80),LU(LU443.40),LU(LU489.60),LU(LU554.10),COMP,TILTX,TILTY,CHECK
1353296191,5810,892.2600097656250000,44.5520782470703100,662.3250732421875000,4.5513968467712400,54.3467903137207000,53,102,87,79,80,15170,2147754486,2147419483,2148008118,2147872493,2147641234,2147063332,2148265718,2147199131,1247,4,13,61739
1353299787,5809,962.3200073242188000,47.7955703735351560,667.5391845703125000,4.3794541358947750,53.9499092102050800,52,97,83,80,80,15174,2147757933,2147419949,2148009078,2147871744,2147646646,2147061229,2148260845,2147193600,3352,4,13,7356
1353303387,5806,953.0999755859375000,48.0035896301269500,670.6702880859375000,4.2760519981384280,53.9555511474609400,52,100,86,79,80,15172,2147757796,2147422299,2148010669,2147875602,2147642660,2147058496,2148266450,2147194898,161,4,13,7448
1353306987,5812,987.4699707031250000,49.5614204406738300,675.4641113281250000,4.1175289154052730,53.7975502014160160,53,98,89,80,81,15174,2147757494,2147418788,2148011337,2147875291,2147643922,2147060562,2148264795,2147194688,91,5,13,48843
1353310587,5809,998.8400268554688000,49.2192497253418000,674.2703857421875000,4.1570258140563965,53.8350906372070300,52,123,87,79,80,15173,2147756626,2147423652,2148009563,2147873234,2147644937,2147068544,2148262180,2147195446,3192,4,13,19434
1353314187,5808,1001.4400024414062000,49.1564216613769500,674.2446289062500000,4.1578788757324220,53.8393402099609400,53,99,88,79,81,15174,2147757019,2147417398,2148008850,2147875145,2147645056,2147059593,2148262336,2147195675,3341,5,13,241
1353317787,5806,996.3699951171875000,49.1398506164550800,674.6152954101562000,4.1456170082092285,53.8464202880859400,53,100,85,79,82,15174,2147756781,2147420388,2148010569,2147875145,2147642395,2147056804,2148257380,2147196681,172,4,13,20050
1353321387,5809,998.3499755859375000,49.1234207153320300,675.4774780273438000,4.1170859336853030,53.8602218627929700,52,104,87,79,82,15172,2147755520,2147422674,2148008064,2147875264,2147641499,2147063725,2148262217,2147195355,129,4,13,62438
1353324987,5809,999.1300048828125000,49.1059494018554700,675.5634765625000000,4.1142392158508300,53.8610115051269500,52,99,84,83,81,15173,2147753892,2147420790,2148010816,2147873024,2147645888,2147057325,2148267072,2147196827,3558,4,13,17220
1353328587,5809,1006.3599853515625000,49.1611404418945300,675.5737304687500000,4.1139011383056640,53.8568496704101560,52,98,89,80,80,15152,2147755181,2147419611,2148011236,2147872896,2147643136,2147060681,2148263570,2147195492,108,4,13,49184
1353332187,5809,1008.0599975585938000,48.9424095153808600,674.9619750976562000,4.1341438293457030,53.8797798156738300,52,99,87,78,81,15171,2147756873,2147422445,2148009819,2147872594,2147640813,2147056493,2148261366,2147195849,3507,4,13,44203
1353335787,5812,1017.8200073242188000,48.7799682617187500,674.0181274414062000,4.1653709411621090,53.8896293640136700,52,99,89,79,82,15173,2147754669,2147419419,2148007890,2147873398,2147645961,2147058998,2148260416,2147195401,296,4,13,10435
1353339387,5811,1013.9299926757812000,48.5539703369140600,673.8510742187500000,4.1708970069885250,53.9221992492675800,53,104,86,80,81,15172,2147759698,2147421878,2148010742,2147872228,2147640137,2147061668,2148260836,2147196754,379,4,13,51297
1353342987,5809,1009.6900024414062000,48.0478286743164060,673.7542114257812000,4.1741051673889160,53.9887809753418000,53,98,88,79,81,15168,2147756032,2147423003,2148011757,2147874505,2147642029,2147059163,2148262573,2147199131,3241,4,13,40329
1353346587,5808,1007.2899780273438000,48.8577804565429700,675.1281738281250000,4.1286449432373050,53.8948287963867200,52,99,84,79,82,15169,2147757248,2147421750,2148007689,2147874368,2147642678,2147062537,2148264091,2147198884,368,4,13,41191
1353350187,5807,1000.8900146484375000,48.6654396057128900,675.3156127929688000,4.1224441528320310,53.9204483032226560,53,98,88,78,80,15168,2147759808,2147421522,2148007853,2147874770,2147643300,2147056329,2148256923,2147196544,314,4,13,46064
1353353787,5809,1001.6699829101562000,48.8468093872070300,676.8837280273438000,4.0705342292785645,53.9169502258300800,52,100,89,80,81,15165,2147755730,2147419657,2148009782,2147877449,2147643382,2147062043,2148260059,2147197805,115,4,13,58427
1353357387,5809,1006.0999755859375000,49.0849494934082000,676.9948120117188000,4.0668530464172360,53.8875694274902340,52,98,87,80,82,15167,2147755730,2147421878,2148008009,2147873782,2147642322,2147055305,2148260150,2147199862,950,4,13,12970
1353360987,5808,1006.2600097656250000,48.6754188537597660,676.5241088867188000,4.0824389457702640,53.9358901977539060,53,98,87,78,81,15167,2147758061,2147422628,2148009280,2147876251,2147641380,2147059648,2148261924,2147196946,143,4,13,32993
1353364587,5808,1013.6699829101562000,49.0499496459960940,675.8532104492188000,4.1046490669250490,53.8738899230957000,53,100,87,79,82,15165,2147756763,2147417874,2148008493,2147874212,2147641645,2147061385,2148263954,2147197010,3176,4,13,16903
1353368187,5808,1012.3200073242188000,48.3525886535644500,675.1206054687500000,4.1288948059082030,53.9632301330566400,52,98,87,79,81,15163,2147757586,2147421760,2148009152,2147875968,2147641947,2147060827,2148264365,2147198436,77,5,13,45523
1353371787,5812,1009.4699707031250000,47.9899101257324200,674.7379150390625000,4.1415600776672360,54.0084915161132800,52,99,88,79,80,15163,2147759890,2147421467,2148006043,2147875510,2147640356,2147059730,2148263104,2147196260,3466,4,13,57228
1353375387,5811,1008.7000122070312000,48.0329399108886700,675.2598266601562000,4.1242899894714355,54.0065689086914060,52,99,87,79,79,15162,2147758098,2147422966,2148007744,2147873078,2147644571,2147058550,2148263661,2147197248,72,5,13,47405
1353378987,5806,1014.2000122070312000,48.4490814208984400,675.8060913085938000,4.1062088012695310,53.9567718505859400,52,99,86,79,81,15163,2147756251,2147420352,2148011648,2147875291,2147639469,2147063149,2148262912,2147199314,3537,4,13,28751
1353382587,5811,1013.0399780273438000,48.1196708679199200,674.5886840820312000,4.1464939117431640,53.9914703369140600,52,98,87,78,82,15160,2147756525,2147420690,2148012324,2147874971,2147642313,2147062509,2148261083,2147198820,3540,4,13,64356
1353386187,5809,1023.2199707031250000,48.5084114074707000,673.8444824218750000,4.1711139678955080,53.9273490905761700,53,97,88,79,81,15160,2147759680,2147422902,2148009462,2147876653,2147642395,2147062281,2148263003,2147194560,3429,4,13,664
1353389787,5808,1012.3400268554688000,48.0063705444335940,674.3593139648438000,4.1540851593017580,54.0026588439941400,52,97,86,78,80,15159,2147756123,2147421330,2148010624,2147875474,2147640713,2147060644,2148261394,2147196214,328,4,13,29247
1353393387,5807,999.2500000000000000,48.9582786560058600,677.2493286132812000,4.0584259033203125,53.9046287536621100,52,98,88,79,82,15158,2147757385,2147419949,2148010752,2147876425,2147643565,2147061458,2148262875,2147197010,949,4,13,40045
1353396987,5813,1007.5599975585938000,49.5258712768554700,677.7160034179688000,4.0429692268371580,53.8349990844726560,53,98,90,80,82,15160,2147759506,2147417910,2148010944,2147874651,2147643364,2147058852,2148260617,2147195309,38,5,13,8263
1353400587,5808,1013.6799926757812000,49.4445991516113300,676.8491821289062000,4.0716738700866700,53.8308601379394500,52,100,90,81,82,15158,2147758354,2147419602,2148009179,2147873993,2147644004,2147055305,2148261129,2147195474,3362,4,13,34240
1353404187,5810,1016.6500244140625000,48.8211708068847660,675.6447143554688000,4.1115508079528810,53.9019889831543000,52,99,88,78,80,15159,2147757101,2147422610,2148008484,2147874038,2147642925,2147058285,2148258724,2147195355,312,4,13,17236
1353407787,5809,1018.0200195312500000,48.0480499267578100,675.4464721679688000,4.1181092262268070,54.0069808959960940,52,101,87,78,81,15158,2147759497,2147418523,2148009545,2147876928,2147639972,2147063286,2148261888,2147193206,472,4,13,60487
1353411387,5810,1009.5399780273438000,48.4100608825683600,675.6657714843750000,4.1108531951904300,53.9614105224609400,53,98,89,80,81,15157,2147754249,2147418624,2148011885,2147875264,2147642642,2147058651,2148265005,2147194861,118,4,13,41174
1353414987,5809,1010.4600219726562000,48.5895004272460940,676.2811889648438000,4.0904831886291500,53.9435501098632800,52,101,86,81,81,15157,2147757686,2147421988,2148011062,2147875913,2147640621,2147060873,2148259620,2147197065,3521,4,13,40565
1353418587,5810,1019.4400024414062000,48.7914314270019500,676.1046142578125000,4.0963292121887210,53.9168891906738300,52,99,90,78,81,15157,2147757019,2147420544,2148009782,2147871753,2147641005,2147061339,2148264630,2147195200,3520,4,13,26675
1353422187,5808,1020.1599731445312000,48.3195991516113300,675.7775878906250000,4.1071510314941410,53.9782791137695300,53,97,89,78,81,15157,2147755282,2147420461,2148008612,2147877476,2147642267,2147063542,2148263414,2147199579,3563,4,13,36002
1353425787,5808,1022.1599731445312000,48.1954383850097660,674.4401245117188000,4.1514129638671875,53.9737815856933600,52,98,89,80,82,15154,2147756205,2147419510,2148009819,2147877366,2147644928,2147065901,2148260525,2147196224,154,4,13,8510
1353429387,5809,1023.2700195312500000,47.9878005981445300,673.6519165039062000,4.1774878501892090,53.9976005554199200,52,100,86,80,81,15133,2147753389,2147421321,2148008850,2147874706,2147642148,2147057856,2148264932,2147194953,554,4,13,58212
1353432987,5805,1014.5599975585938000,48.4239807128906250,675.6483154296875000,4.1114311218261720,53.9625205993652340,52,99,88,78,82,15145,2147755675,2147418944,2148008749,2147873956,2147642496,2147056182,2148264356,2147198592,345,4,13,60242
1353436587,5806,1013.7700195312500000,48.7396697998046900,676.5875854492188000,4.0803360939025880,53.9241714477539060,53,98,87,80,81,15155,2147758244,2147417782,2148011611,2147875584,2147643437,2147056301,2148264429,2147196790,3583,4,13,55054
1353440187,5809,1009.0900268554688000,48.8341102600097660,677.4121704101562000,4.0530319213867190,53.9277610778808600,52,99,87,79,81,15156,2147755392,2147421275,2148010404,2147878692,2147638756,2147065316,2148260269,2147192603,12,4,13,9150
1353440755,5807,1010.8900146484375000,48.6895103454589840,677.5833740234375000,4.0473608970642090,53.9473686218261700,52,98,85,79,82,15166,2147755008,2147421229,2148013321,2147873920,2147644973,2147058825,2148262381,2147197174,3539,4,13,48598
